Вернуться в каталог

VULCAN CENTAUR R/B

АктивенGEO
NORAD 67762·ROCKET BODY·🇺🇸 United States

Запущен Feb 12, 2026 с Cape Canaveral Space Force Station

Loading…

TLE

СвежийSource: Mike McCants

Эпоха: Sep 15, 2026, 19:15 UTC

1 67762U 26029D   26258.80248284  .00000000  00000-0  00000-0 0    09
2 67762   0.7482 357.2179 0053137 293.5035  65.9522  0.98157634   418

Отслеживайте VULCAN CENTAUR R/B в реальном времени с AllMySat

Download on the App Store